Indianapolis, IN

9:52 PM EDT on April 26, 2017 (GMT -0400)
Indianapolis Terry

Weather History for KTYQ - September, 2013

Change the Weather History Date:

Sunday, September 15, 2013

  Actual Average (KEYE) Record (KEYE)
Temperature  
Mean Temperature 58 °F -  
Max Temperature 76 °F 75 °F 87 °F (2010)
Min Temperature 41 °F 55 °F 44 °F (2011)
Degree Days  
Heating Degree Days 6    
Growing Degree Days 8 (Base 50)    
Moisture  
Dew Point 45 °F    
Average Humidity 67    
Maximum Humidity 89    
Minimum Humidity 30    
Precipitation  
Precipitation 0.01 in - - ()
Sea Level Pressure  
Sea Level Pressure 30.09 in    
Wind  
Wind Speed 2 mph (SSW)    
Max Wind Speed 12 mph    
Max Gust Speed 16 mph    
Visibility 10 miles    
Events Rain    
Averages and records for this station are not official NWS values.
T = Trace of Precipitation, MM = Missing Value Source: NWS Daily Summary

Daily Weather History Graph

Daily Weather History Graph

Search for Another Location

Airport or City:

Trip Planner

Search our weather history database for the weather conditions in past years. The results will help you decide how hot, cold, wet, or windy it might be!

Date:

Astronomy

Sep. 15, 2013 Rise Set
Actual Time 7:26 AM EDT 7:53 PM EDT
Civil Twilight 6:58 AM EDT 8:20 PM EDT
Nautical Twilight 6:26 AM EDT 8:52 PM EDT
Astronomical Twilight 5:54 AM EDT 9:25 PM EDT
Moon 5:20 PM EDT (9/15) 3:03 AM EDT (9/15)
Length of Visible Light 13h 21m
Length of Day
12h 27m
Waxing Gibbous, 82% of the Moon is Illuminated
Sep 15
Waxing Gibbous
Sep 19
Full
Sep 26
Last Quarter
Oct 4
New
Oct 11
First Quarter

Hourly Weather History & Observations

Time (EDT) Temp. Windchill Dew Point Humidity Pressure Visibility Wind Dir Wind Speed Gust Speed Precip Events Conditions
12:15 AM 45.1 °F - 41.5 °F 87% 30.11 in 10.0 mi Calm Calm - N/A   Clear
12:35 AM 44.4 °F - 40.8 °F 87% 30.11 in 10.0 mi Calm Calm - N/A   Clear
12:55 AM 44.4 °F - 41.0 °F 88% 30.10 in 10.0 mi Calm Calm - N/A   Clear
1:15 AM 43.7 °F - 40.3 °F 88% 30.10 in 10.0 mi Calm Calm - N/A   Clear
1:35 AM 43.9 °F - 40.6 °F 88% 30.10 in 10.0 mi Calm Calm - N/A   Clear
1:55 AM 43.0 °F - 39.6 °F 88% 30.10 in 10.0 mi Calm Calm - N/A   Clear
2:15 AM 42.8 °F - 39.6 °F 88% 30.10 in 10.0 mi Calm Calm - N/A   Clear
2:35 AM 42.4 °F - 39.2 °F 88% 30.11 in 10.0 mi Calm Calm - N/A   Clear
2:55 AM 41.9 °F - 38.7 °F 88% 30.11 in 10.0 mi Calm Calm - N/A   Clear
3:15 AM 42.1 °F - 38.8 °F 88% 30.11 in 10.0 mi Calm Calm - N/A   Clear
3:35 AM 41.7 °F - 38.5 °F 88% 30.11 in 10.0 mi Calm Calm - N/A   Clear
3:55 AM 41.5 °F - 38.3 °F 88% 30.11 in 10.0 mi Calm Calm - N/A   Clear
4:15 AM 41.4 °F - 38.3 °F 89% 30.11 in 10.0 mi Calm Calm - N/A   Clear
4:35 AM 41.9 °F 40.0 °F 38.5 °F 88% 30.11 in 10.0 mi SSE 3.5 mph - N/A   Clear
4:55 AM 42.1 °F - 38.8 °F 88% 30.11 in 10.0 mi Calm Calm - N/A   Clear
5:15 AM 42.1 °F - 38.8 °F 88% 30.11 in 10.0 mi Calm Calm - N/A   Clear
5:35 AM 42.1 °F - 38.8 °F 88% 30.11 in 10.0 mi Calm Calm - N/A   Clear
5:55 AM 42.1 °F - 38.8 °F 88% 30.11 in 10.0 mi Calm Calm - N/A   Clear
6:15 AM 41.9 °F - 38.5 °F 88% 30.11 in 10.0 mi Calm Calm - N/A   Clear
6:35 AM 42.8 °F - 39.4 °F 88% 30.11 in 10.0 mi Calm Calm - N/A   Clear
6:55 AM 42.6 °F - 39.4 °F 88% 30.11 in 10.0 mi Calm Calm - N/A   Clear
7:15 AM 42.8 °F - 39.6 °F 88% 30.12 in 10.0 mi Calm Calm - N/A   Clear
7:35 AM 42.4 °F - 39.2 °F 88% 30.12 in 10.0 mi Calm Calm - N/A   Clear
7:55 AM 42.6 °F - 39.4 °F 88% 30.13 in 10.0 mi Calm Calm - N/A   Clear
8:15 AM 44.4 °F - 41.4 °F 89% 30.13 in 10.0 mi Calm Calm - N/A   Clear
8:35 AM 46.0 °F - 43.0 °F 89% 30.14 in 10.0 mi Calm Calm - N/A   Clear
8:55 AM 49.3 °F - 46.2 °F 89% 30.14 in 10.0 mi Calm Calm - N/A   Clear
9:15 AM 52.5 °F - 48.2 °F 85% 30.14 in 10.0 mi Calm Calm - N/A   Clear
9:35 AM 55.8 °F - 48.4 °F 76% 30.14 in 10.0 mi Calm Calm - N/A   Clear
9:55 AM 58.1 °F - 48.0 °F 69% 30.14 in 10.0 mi South 4.6 mph - N/A   Clear
10:15 AM 61.0 °F - 47.1 °F 60% 30.14 in 10.0 mi South 3.5 mph - N/A   Clear
10:35 AM 63.0 °F - 46.8 °F 55% 30.13 in 10.0 mi South 5.8 mph - N/A   Clear
10:55 AM 65.5 °F - 45.9 °F 49% 30.13 in 10.0 mi South 5.8 mph - N/A   Clear
11:15 AM 67.5 °F - 46.4 °F 47% 30.13 in 10.0 mi SSW 6.9 mph - N/A   Clear
11:35 AM 68.7 °F - 46.2 °F 44% 30.13 in 10.0 mi SSW 8.1 mph - N/A   Clear
11:55 AM 69.1 °F - 45.5 °F 43% 30.12 in 10.0 mi SSW 8.1 mph - N/A   Clear
12:15 PM 70.3 °F - 45.1 °F 40% 30.11 in 10.0 mi SW 11.5 mph - N/A   Clear
12:35 PM 70.3 °F - 45.0 °F 40% 30.10 in 10.0 mi SSW 6.9 mph - N/A   Clear
12:55 PM 71.2 °F - 45.5 °F 40% 30.10 in 10.0 mi South 9.2 mph - N/A   Clear
1:15 PM 72.1 °F - 45.9 °F 39% 30.09 in 10.0 mi SW 6.9 mph - N/A   Clear
1:35 PM 71.6 °F - 45.7 °F 39% 30.09 in 10.0 mi SSW 6.9 mph - N/A   Clear
1:55 PM 72.5 °F - 45.7 °F 38% 30.08 in 10.0 mi South 10.4 mph - N/A   Clear
2:15 PM 73.9 °F - 44.6 °F 35% 30.08 in 10.0 mi South 9.2 mph 16.1 mph N/A   Clear
2:35 PM 74.7 °F - 44.1 °F 33% 30.07 in 10.0 mi SSW 8.1 mph - N/A   Clear
2:55 PM 75.6 °F - 42.3 °F 30% 30.06 in 10.0 mi SSW 10.4 mph 16.1 mph N/A   Scattered Clouds
3:15 PM 75.2 °F - 43.2 °F 32% 30.05 in 10.0 mi SSW 5.8 mph - N/A   Scattered Clouds
3:35 PM 76.6 °F - 42.8 °F 30% 30.05 in 10.0 mi SSW 9.2 mph - N/A   Clear
3:55 PM 75.4 °F - 43.7 °F 32% 30.03 in 10.0 mi SSW 9.2 mph - N/A   Clear
4:15 PM 75.0 °F - 42.6 °F 31% 30.03 in 10.0 mi South 5.8 mph - N/A   Clear
4:35 PM 74.7 °F - 44.2 °F 34% 30.03 in 10.0 mi SSW 6.9 mph - N/A   Clear
4:55 PM 74.7 °F - 43.9 °F 33% 30.03 in 10.0 mi SW 11.5 mph - N/A   Clear
5:15 PM 74.3 °F - 45.3 °F 36% 30.03 in 10.0 mi SW 6.9 mph - N/A   Mostly Cloudy
5:35 PM 73.9 °F - 45.5 °F 36% 30.03 in 10.0 mi SW 8.1 mph - N/A   Overcast
5:55 PM 73.8 °F - 46.2 °F 37% 30.04 in 10.0 mi SW 6.9 mph - N/A   Overcast
6:15 PM 73.4 °F - 46.4 °F 38% 30.04 in 10.0 mi SW 4.6 mph - N/A   Overcast
6:35 PM 72.9 °F - 47.5 °F 40% 30.05 in 10.0 mi SW 4.6 mph - N/A   Overcast
6:55 PM 72.5 °F - 46.8 °F 40% 30.05 in 10.0 mi SW 5.8 mph - N/A   Overcast
7:15 PM 72.0 °F - 46.4 °F 40% 30.05 in 10.0 mi SW 4.6 mph - N/A   Overcast
7:35 PM 71.2 °F - 46.8 °F 42% 30.07 in 10.0 mi NW 3.5 mph - N/A   Overcast
7:55 PM 69.6 °F - 50.7 °F 51% 30.06 in 10.0 mi Calm Calm - N/A Rain Rain
8:15 PM 65.7 °F - 55.0 °F 69% 30.07 in 10.0 mi North 6.9 mph - N/A Rain Light Rain
8:35 PM 61.9 °F - 55.6 °F 80% 30.07 in 7.0 mi Calm Calm - 0.01 in Rain Light Rain
8:55 PM 61.3 °F - 56.3 °F 83% 30.08 in 10.0 mi NE 4.6 mph - 0.01 in   Light Drizzle
9:15 PM 60.8 °F - 56.1 °F 85% 30.07 in 10.0 mi NE 4.6 mph - N/A   Overcast
9:35 PM 60.8 °F - 56.3 °F 85% 30.08 in 10.0 mi ENE 3.5 mph - N/A   Overcast
9:55 PM 60.8 °F - 56.3 °F 85% 30.09 in 10.0 mi NE 4.6 mph - N/A   Overcast
10:15 PM 60.4 °F - 56.1 °F 86% 30.09 in 10.0 mi Calm Calm - N/A   Overcast
10:35 PM 60.3 °F - 55.9 °F 86% 30.09 in 10.0 mi ENE 4.6 mph - N/A   Overcast
10:55 PM 60.1 °F - 55.8 °F 86% 30.09 in 10.0 mi NE 4.6 mph - N/A   Overcast
11:15 PM 59.9 °F - 55.6 °F 86% 30.10 in 10.0 mi NE 4.6 mph - N/A   Overcast
11:35 PM 59.9 °F - 55.4 °F 85% 30.10 in 10.0 mi ENE 3.5 mph - N/A   Overcast
11:55 PM 59.9 °F - 55.4 °F 85% 30.11 in 10.0 mi NNE 3.5 mph - N/A   Overcast